Weather in Guadalajara

Mexico     20˚37′53″N   103˚20′47″W
temp.,
°C
wind,
m/s
gust,
m/s
humid.,
%
clouds,
%
prec.,
mm/h
press.,
hPa
HPBL,
m
28 november, sat
sat2800:00+17˚wnw115161 0.0 101535
03:00+15˚nnw116590 0.0 101434
06:00+14˚e116886 0.0 101536
09:00+19˚e015115 0.0 1017204
12:00+29˚wsw112833 0.0 1015846
15:00+30˚w232232 0.0 10112353
18:00+24˚nw233426 0.0 1012222
21:00+19˚wsw114665 0.0 101549
29 november, sun
sun2900:00+16˚nw125944 0.0 101637
03:00+14˚nw00732 0.0 101434
06:00+13˚nne008132 0.0 101532
09:00+19˚ese01590 0.0 1016210
12:00+28˚wsw13300 0.0 10141088
15:00+29˚w34196 0.0 10112437
18:00+23˚nw243113 0.0 1012199
21:00+18˚wsw11430 0.0 101648
30 november, mon
mon3000:00+15˚w01510 0.0 101735
03:00+13˚nw11600 0.0 101635
06:00+12˚ne11670 0.0 101832
09:00+18˚e12490 0.0 1018225
12:00+28˚e01260 0.0 10151150
15:00+28˚wsw13210 0.0 10111988
18:00+22˚nw13340 0.0 1012132
21:00+17˚wsw11450 0.0 101658
1 december, tue
tue100:00+15˚nne01550 0.0 101843
03:00+13˚ene12630 0.0 101750
06:00+11˚e12680 0.0 101856
09:00+16˚e12550 0.0 1018291
12:00+24˚sw253710 0.0 10151511
15:00+26˚wsw48261 0.0 10112604
18:00+22˚sw373312 0.0 1013482
21:00+16˚wsw24498 0.0 1016105
2 december, wed
wed200:00+13˚wsw11704 0.0 101750
03:00+11˚wsw01830 0.0 101636
06:00+10˚ese00870 0.0 101731
09:00+16˚se11623 0.0 1018252
12:00+23˚sw262622 0.0 10151818
15:00+24˚w462399 0.0 10122296
18:00+20˚sw383350 0.0 1014411
21:00+15˚wsw24460 0.0 1017109